Location: Christchurch
(43.5330°S, 172.6330°E)
Time: 02:46:09
(UTC+13:00)

ISS - Pass Details

Date: 31 January 2019
Orbit: 403 x 411 km, 51.6° (Epoch: 16 February)

Event Time Altitude Azimuth Distance (km) Brightness Sun altitude
Exits shadow 04:37:20 21° 23° (NNE) 1,002 -2.1 -16.9°
Maximum altitude 04:38:06 23° 44° (NE) 947 -2.0 -16.9°
Drops below altitude 10° 04:40:49 10° 98° (E) 1,495 -0.2 -16.5°
Sets 04:43:11 0° 113° (ESE) 2,363 1.4 -16.2°
